Regional Weather Roundup
Issued by NWS Bismarck, ND

Home | Current Version | Previous Version | Text Only | Print | Product List | Glossary On
Versions: 1 2 3 4 5 6 7 8 9 10 11 12 13 14 15 16 17 18 19 20 21 22 23 24 25 26 27 28 29 30 31 32 33 34 35 36 37 38 39 40 41 42 43 44 45 46 47 48 49 50
000
ASUS43 KBIS 041510
RWRBIS

NWR BROADCAST TEXT
NATIONAL WEATHER SERVICE BISMARCK ND
1000 AM CDT SAT JUL 04 2015

NOTE: "FAIR" INDICATES FEW OR NO CLOUDS BELOW 12,000 FEET WITH NO
SIGNIFICANT WEATHER AND/OR OBSTRUCTIONS TO VISIBILITY.


CITY           SKY/WX    TMP DP  RH WIND       PRES   REMARKS
WILLISTON      SUNNY     77  62  59 S7        29.76S
MINOT          MOSUNNY   77  62  59 S7        29.76F HAZE
MINOT AFB      SUNNY     78  71  80 S8        29.76S
BISMARCK       SUNNY     74  67  78 SE7       29.82S HAZE
DICKINSON      SUNNY     74  63  68 S10       29.79F HAZE
GARRISON         N/A     73  65  75 S9        29.79F
HETTINGER ARPT MOSUNNY   72  63  73 S6        29.84S HAZE
JAMESTOWN      SUNNY     76  66  71 S6        29.85F HAZE
BEACH          FAIR      75  68  78 S9        29.80F
CROSBY         FAIR      73  72  94 S10       29.75F
HARVEY         FAIR      77  66  69 S10       29.82F
HAZEN          FAIR      75  64  69 S7        29.80F HAZE
LINTON         FAIR      73  70  88 SE12      29.83F
MANDAN         FAIR      73  68  83 SE7       29.83F HAZE
OAKES            N/A     72  72 100 S7        29.88F
STANLEY        FAIR      73  72  94 S10       29.79F
$$

CITY           SKY/WX    TMP DP  RH WIND       PRES   REMARKS
GRAND FORKS    CLOUDY    74  65  73 S8        29.84F HAZE
GRAND FORKS AF SUNNY     74  66  76 S9        29.84F HAZE
DEVILS LAKE    SUNNY     75  64  69 S10       29.82F
FARGO          SUNNY     75  66  73 S8        29.88S HAZE
CANDO          FAIR      75  68  78 S12       29.82F HAZE
CAVALIER       FAIR      72  64  78 S9        29.83S HAZE
GRAFTON        FAIR      73  68  83 S12       29.84F HAZE
GWINNER        FAIR      75  66  73 S8        29.89F
LANGDON        FAIR      75  68  78 S12       29.84F HAZE
ROLLA          FAIR      72  68  88 S10       29.83S FOG
WALHALLA       FAIR      75  73  94 MISG      29.82S FOG
$$

CITY           SKY/WX    TMP DP  RH WIND       PRES   REMARKS
ABERDEEN       MOSUNNY   72  66  81 S10       29.88F
MOBRIDGE       SUNNY     75  68  78 SE14      29.80F
BUFFALO          N/A     73  63  70 CALM      29.79S
RAPID CITY     SUNNY     76  64  66 S10       29.85F
GLASGOW        SUNNY     77  57  50 SE5       29.71F
SIDNEY         SUNNY     75  61  60 SE9       29.76F
WOLF POINT     SUNNY     76  62  62 NE5       29.72S HAZE
GLENDIVE       SUNNY     75  63  64 S12       29.78F
MILES CITY     SUNNY     77  63  61 SE6       29.78S
BAKER          SUNNY     77  62  59 S8        29.83S
$$

CITY           SKY/WX    TMP DP  RH WIND       PRES   REMARKS
BILLINGS       MOSUNNY   75  54  47 SW7       29.88R
GREAT FALLS    SUNNY     78  44  29 NW15      29.88R
REGINA         PTSUNNY   72  61  68 N8        29.76R
$$




USA.gov is the U.S. government's official web portal to all federal, state and local government web resources and services.